When you browse on this site, cookies collect data to enhance your experience and personalize the content and advertising you see.
Visit our Privacy Policy to learn more. By continuing to use the site, you agree to this use of cookies and data.
  • In Lithuania
  • List of Countries
  • For 7 days
  • Water Temperature
  • Weather Map
  • Weather Widgets
  • user-avatar
    Login

    Hourly Weather Mandalay

    Today, 5 June, Friday

    Time Temperature Precipitation Wind Pressure Humidity
    00:00 +28°C° 4.3 mm 4 mps 748 mmHg 91%
    01:00 +28°C° 1.3 mm 3 mps 748 mmHg 90%
    02:00 +28°C° 1.3 mm 3 mps 748 mmHg 89%
    03:00 +28°C° 1.3 mm 2 mps 748 mmHg 88%
    04:00 +28°C° 0.3 mm 2 mps 748 mmHg 87%
    05:00 +29°C° 0.3 mm 2 mps 748 mmHg 86%
    06:00 +29°C° 0.3 mm 1 mps 748 mmHg 85%
    07:00 +30°C° 0 mm 2 mps 749 mmHg 80%
    08:00 +31°C° 0 mm 2 mps 749 mmHg 75%
    09:00 +32°C° 0 mm 2 mps 749 mmHg 70%
    10:00 +34°C° 0 mm 2 mps 749 mmHg 65%
    11:00 +35°C° 0 mm 3 mps 748 mmHg 60%
    12:00 +36°C° 0 mm 3 mps 748 mmHg 55%
    13:00 +37°C° 0 mm 2 mps 747 mmHg 52%
    14:00 +38°C° 0 mm 2 mps 746 mmHg 49%
    15:00 +38°C° 0 mm 2 mps 745 mmHg 46%
    16:00 +37°C° 0 mm 2 mps 745 mmHg 50%
    17:00 +37°C° 0 mm 2 mps 745 mmHg 54%
    18:00 +36°C° 0 mm 2 mps 745 mmHg 57%
    19:00 +35°C° 0 mm 2 mps 746 mmHg 60%
    20:00 +34°C° 0 mm 2 mps 746 mmHg 63%
    21:00 +32°C° 0 mm 1 mps 746 mmHg 65%
    22:00 +32°C° 0.1 mm 2 mps 746 mmHg 67%
    23:00 +31°C° 0.1 mm 3 mps 746 mmHg 68%

    Tomorrow, 6 June, Saturday

    Time Temperature Precipitation Wind Pressure Humidity
    00:00 +31°C° 0.1 mm 3 mps 746 mmHg 70%
    01:00 +31°C° 0 mm 3 mps 746 mmHg 71%
    02:00 +30°C° 0 mm 3 mps 746 mmHg 73%
    03:00 +30°C° 0 mm 4 mps 745 mmHg 74%
    04:00 +30°C° 0.3 mm 3 mps 746 mmHg 75%
    05:00 +30°C° 0.3 mm 3 mps 746 mmHg 75%
    06:00 +30°C° 0.3 mm 3 mps 747 mmHg 76%
    07:00 +31°C° 0 mm 3 mps 747 mmHg 71%
    08:00 +34°C° 0 mm 3 mps 747 mmHg 66%
    09:00 +35°C° 0 mm 3 mps 748 mmHg 61%
    10:00 +36°C° 0 mm 3 mps 747 mmHg 57%
    11:00 +37°C° 0 mm 3 mps 746 mmHg 52%
    12:00 +39°C° 0 mm 3 mps 746 mmHg 47%
    13:00 +39°C° 0 mm 3 mps 745 mmHg 45%
    14:00 +40°C° 0 mm 3 mps 744 mmHg 44%
    15:00 +40°C° 0 mm 3 mps 744 mmHg 42%
    16:00 +39°C° 0 mm 3 mps 744 mmHg 46%
    17:00 +38°C° 0 mm 3 mps 744 mmHg 51%
    18:00 +36°C° 0 mm 3 mps 744 mmHg 56%
    19:00 +36°C° 0.2 mm 3 mps 744 mmHg 58%
    20:00 +35°C° 0.2 mm 3 mps 745 mmHg 60%
    21:00 +34°C° 0.2 mm 3 mps 745 mmHg 62%
    22:00 +33°C° 0.7 mm 4 mps 745 mmHg 64%
    23:00 +33°C° 0.7 mm 4 mps 745 mmHg 66%

    Day after tomorrow, 7 June, Sunday

    Time Temperature Precipitation Wind Pressure Humidity
    00:00 +32°C° 0.7 mm 5 mps 745 mmHg 69%
    01:00 +32°C° 0.2 mm 5 mps 745 mmHg 70%
    02:00 +32°C° 0.2 mm 5 mps 745 mmHg 72%
    03:00 +30°C° 0.2 mm 4 mps 745 mmHg 74%
    04:00 +30°C° 0.2 mm 4 mps 745 mmHg 74%
    05:00 +30°C° 0.2 mm 4 mps 746 mmHg 74%
    06:00 +30°C° 0.2 mm 3 mps 746 mmHg 75%
    07:00 +33°C° 0 mm 4 mps 746 mmHg 69%
    08:00 +34°C° 0 mm 4 mps 747 mmHg 64%
    09:00 +35°C° 0 mm 4 mps 747 mmHg 59%
    10:00 +37°C° 0 mm 4 mps 746 mmHg 55%
    11:00 +38°C° 0 mm 4 mps 746 mmHg 52%
    12:00 +40°C° 0 mm 4 mps 745 mmHg 48%
    13:00 +40°C° 0 mm 4 mps 744 mmHg 47%
    14:00 +40°C° 0 mm 4 mps 744 mmHg 46%
    15:00 +39°C° 0 mm 3 mps 743 mmHg 45%
    16:00 +38°C° 0 mm 3 mps 743 mmHg 49%
    17:00 +37°C° 0 mm 3 mps 743 mmHg 53%
    18:00 +36°C° 0 mm 3 mps 743 mmHg 56%
    19:00 +36°C° 0 mm 3 mps 744 mmHg 58%
    20:00 +35°C° 0 mm 3 mps 744 mmHg 60%
    21:00 +34°C° 0 mm 4 mps 745 mmHg 62%
    22:00 +34°C° 0.2 mm 4 mps 745 mmHg 64%
    23:00 +33°C° 0.2 mm 5 mps 745 mmHg 66%

    8 June, Monday

    Time Temperature Precipitation Wind Pressure Humidity
    00:00 +32°C° 0.2 mm 5 mps 745 mmHg 68%
    01:00 +32°C° 0.1 mm 5 mps 745 mmHg 70%
    02:00 +30°C° 0.1 mm 4 mps 745 mmHg 72%
    03:00 +30°C° 0.1 mm 4 mps 745 mmHg 74%
    04:00 +30°C° 0.1 mm 4 mps 745 mmHg 75%
    05:00 +30°C° 0.1 mm 4 mps 745 mmHg 75%
    06:00 +30°C° 0.1 mm 3 mps 746 mmHg 75%
    07:00 +33°C° 0 mm 3 mps 746 mmHg 69%
    08:00 +34°C° 0 mm 4 mps 746 mmHg 63%
    09:00 +36°C° 0 mm 4 mps 747 mmHg 58%
    10:00 +37°C° 0 mm 4 mps 746 mmHg 53%
    11:00 +38°C° 0 mm 4 mps 745 mmHg 49%
    12:00 +40°C° 0 mm 4 mps 745 mmHg 45%
    13:00 +41°C° 0 mm 4 mps 744 mmHg 44%
    14:00 +40°C° 0 mm 3 mps 743 mmHg 42%
    15:00 +40°C° 0 mm 3 mps 743 mmHg 41%
    16:00 +39°C° 0 mm 3 mps 743 mmHg 44%
    17:00 +38°C° 0 mm 3 mps 743 mmHg 48%
    18:00 +37°C° 0 mm 2 mps 743 mmHg 51%
    19:00 +36°C° 0 mm 3 mps 744 mmHg 53%
    20:00 +36°C° 0 mm 3 mps 744 mmHg 55%
    21:00 +35°C° 0 mm 4 mps 745 mmHg 57%
    22:00 +34°C° 0.1 mm 4 mps 745 mmHg 60%
    23:00 +34°C° 0.1 mm 5 mps 745 mmHg 63%

    9 June, Tuesday

    Time Temperature Precipitation Wind Pressure Humidity
    00:00 +33°C° 0.1 mm 5 mps 745 mmHg 66%
    01:00 +32°C° 0.1 mm 5 mps 745 mmHg 68%
    02:00 +32°C° 0.1 mm 4 mps 745 mmHg 70%
    03:00 +30°C° 0.1 mm 4 mps 745 mmHg 73%
    04:00 +30°C° 0.1 mm 4 mps 745 mmHg 73%
    05:00 +30°C° 0.1 mm 4 mps 746 mmHg 73%
    06:00 +30°C° 0.1 mm 4 mps 746 mmHg 74%
    07:00 +33°C° 0.1 mm 4 mps 746 mmHg 68%
    08:00 +34°C° 0.1 mm 4 mps 746 mmHg 63%
    09:00 +36°C° 0.1 mm 4 mps 747 mmHg 57%
    10:00 +37°C° 0.1 mm 4 mps 746 mmHg 53%
    11:00 +39°C° 0.1 mm 5 mps 746 mmHg 49%
    12:00 +40°C° 0.1 mm 5 mps 745 mmHg 45%
    13:00 +40°C° 0 mm 5 mps 744 mmHg 43%
    14:00 +41°C° 0 mm 5 mps 744 mmHg 42%
    15:00 +41°C° 0 mm 5 mps 743 mmHg 41%
    16:00 +40°C° 0 mm 4 mps 743 mmHg 44%
    17:00 +38°C° 0 mm 3 mps 743 mmHg 47%
    18:00 +37°C° 0 mm 3 mps 743 mmHg 50%
    19:00 +36°C° 0 mm 4 mps 744 mmHg 53%
    20:00 +35°C° 0 mm 5 mps 745 mmHg 55%
    21:00 +35°C° 0 mm 6 mps 746 mmHg 57%
    22:00 +34°C° 0 mm 6 mps 746 mmHg 60%
    23:00 +33°C° 0 mm 6 mps 746 mmHg 63%

    10 June, Wednesday

    Time Temperature Precipitation Wind Pressure Humidity
    00:00 +32°C° 0 mm 6 mps 746 mmHg 66%
    01:00 +32°C° 0 mm 5 mps 746 mmHg 68%
    02:00 +32°C° 0 mm 5 mps 746 mmHg 70%
    03:00 +30°C° 0 mm 5 mps 746 mmHg 71%
    04:00 +30°C° 0 mm 4 mps 746 mmHg 72%
    05:00 +30°C° 0 mm 4 mps 747 mmHg 72%
    06:00 +30°C° 0 mm 4 mps 747 mmHg 73%
    07:00 +32°C° 0 mm 4 mps 747 mmHg 68%
    08:00 +34°C° 0 mm 4 mps 748 mmHg 63%
    09:00 +35°C° 0 mm 5 mps 748 mmHg 58%
    10:00 +36°C° 0 mm 5 mps 747 mmHg 54%
    11:00 +37°C° 0 mm 5 mps 747 mmHg 50%
    12:00 +40°C° 0 mm 5 mps 746 mmHg 45%
    13:00 +40°C° 0 mm 5 mps 745 mmHg 44%
    14:00 +40°C° 0 mm 5 mps 745 mmHg 44%
    15:00 +41°C° 0 mm 6 mps 744 mmHg 43%
    16:00 +40°C° 0.1 mm 6 mps 744 mmHg 46%
    17:00 +38°C° 0.1 mm 6 mps 745 mmHg 49%
    18:00 +36°C° 0.1 mm 6 mps 745 mmHg 52%
    19:00 +35°C° 0 mm 6 mps 745 mmHg 55%
    20:00 +34°C° 0 mm 6 mps 746 mmHg 59%
    21:00 +33°C° 0 mm 7 mps 747 mmHg 63%
    22:00 +33°C° 0.1 mm 6 mps 747 mmHg 65%
    23:00 +32°C° 0.1 mm 6 mps 747 mmHg 67%
    Show more